Weather History for KAQP - December, 2012

Change the Weather History Date:

Friday, December 14, 2012

  Actual Average Record
Temperature  
Mean Temperature 20 °F -  
Max Temperature 35 °F 26 °F 57 °F (1998)
Min Temperature 5 °F 10 °F -13 °F (2007)
Degree Days  
Heating Degree Days 45    
Moisture  
Dew Point 17 °F    
Average Humidity 85    
Maximum Humidity 93    
Minimum Humidity 74    
Precipitation  
Precipitation 0.00 in - - ()
Sea Level Pressure  
Sea Level Pressure 29.90 in    
Wind  
Wind Speed 5 mph (ESE)    
Max Wind Speed 14 mph    
Max Gust Speed -    
Visibility 6 miles    
Events Fog , Snow    
Averages and records for this station are not official NWS values.
T = Trace of Precipitation, MM = Missing Value Source: NWS Daily Summary

Daily Weather History Graph

Daily Weather History Graph

Search for Another Location

Airport or City:

Trip Planner

Search our weather history database for the weather conditions in past years. The results will help you decide how hot, cold, wet, or windy it might be!

Date:

Astronomy

Dec. 14, 2012 Rise Set
Actual Time 7:55 AM CST 4:42 PM CST
Civil Twilight 7:21 AM CST 5:16 PM CST
Nautical Twilight 6:44 AM CST 5:53 PM CST
Astronomical Twilight 6:08 AM CST 6:29 PM CST
Moon 8:59 AM CST (12/14) 6:39 PM CST (12/14)
Length of Visible Light 9h 54m
Length of Day
8h 46m
Waxing Crescent, 3% of the Moon is Illuminated
Dec 14
Waxing Crescent
Dec 19
First Quarter
Dec 28
Full
Jan 4
Last Quarter
Jan 11
New

Hourly Weather History & Observations

Time (CST) Temp. Windchill Dew Point Humidity Pressure Visibility Wind Dir Wind Speed Gust Speed Precip Events Conditions
12:13 AM 8.6 °F - 6.8 °F 92% 30.11 in 7.0 mi Calm Calm - N/A   Clear
12:33 AM 6.8 °F - 3.2 °F 85% 30.10 in 7.0 mi Calm Calm - N/A   Clear
12:53 AM 8.6 °F - 6.8 °F 92% 30.09 in 7.0 mi Calm Calm - N/A   Clear
1:14 AM 6.8 °F -0.1 °F 3.2 °F 85% 30.08 in 7.0 mi SE 3.5 mph - N/A   Clear
1:33 AM 8.6 °F 0.1 °F 5.0 °F 85% 30.07 in 7.0 mi East 4.6 mph - N/A   Clear
1:54 AM 6.8 °F -0.1 °F 3.2 °F 85% 30.07 in 7.0 mi ESE 3.5 mph - N/A   Clear
2:13 AM 6.8 °F - 3.2 °F 85% 30.08 in 7.0 mi Calm Calm - N/A   Clear
2:34 AM 8.6 °F - 3.2 °F 79% 30.08 in 7.0 mi Calm Calm - N/A   Clear
2:54 AM 8.6 °F - 5.0 °F 85% 30.08 in 7.0 mi Calm Calm - N/A   Clear
3:13 AM 8.6 °F - 6.8 °F 92% 30.08 in 7.0 mi Calm Calm - N/A   Clear
3:53 AM 6.8 °F - 3.2 °F 85% 30.06 in 4.0 mi Calm Calm - N/A Snow Light Snow
4:13 AM 5.0 °F -4.1 °F 1.4 °F 85% 30.05 in 7.0 mi ESE 4.6 mph - N/A   Scattered Clouds
4:34 AM 8.6 °F 0.1 °F 5.0 °F 85% 30.04 in 5.0 mi ESE 4.6 mph - N/A   Overcast
4:53 AM 10.4 °F 4.0 °F 8.6 °F 92% 30.03 in 0.5 mi SE 3.5 mph - N/A Fog Light Freezing Fog
5:14 AM 12.2 °F - 8.6 °F 85% 30.03 in 0.5 mi Calm Calm - N/A Fog Light Freezing Fog
5:33 AM 12.2 °F - 8.6 °F 85% 30.02 in 0.5 mi Calm Calm - N/A Snow Light Snow
5:53 AM 12.2 °F 6.1 °F 10.4 °F 92% 30.02 in 0.5 mi ESE 3.5 mph - N/A Fog Light Freezing Fog
6:13 AM 14.0 °F 5.1 °F 10.4 °F 86% 30.01 in 0.5 mi SE 5.8 mph - N/A Fog Light Freezing Fog
6:33 AM 14.0 °F 5.1 °F 12.2 °F 93% 30.01 in 0.2 mi SE 5.8 mph - N/A Snow Light Snow
6:53 AM 15.8 °F 7.2 °F 12.2 °F 86% 30.00 in 0.5 mi SE 5.8 mph - N/A Fog Light Freezing Fog
7:13 AM 15.8 °F 6.1 °F 12.2 °F 86% 30.00 in 0.5 mi SE 6.9 mph - N/A Fog Light Freezing Fog
7:34 AM 15.8 °F 8.6 °F 12.2 °F 86% 29.99 in 0.5 mi SE 4.6 mph - N/A Fog Light Freezing Fog
7:54 AM 15.8 °F 7.2 °F 12.2 °F 86% 29.99 in 0.8 mi SE 5.8 mph - N/A   Overcast
8:13 AM 15.8 °F 6.1 °F 12.2 °F 86% 29.99 in 0.5 mi SE 6.9 mph - N/A Fog Light Freezing Fog
8:33 AM 15.8 °F 6.1 °F 12.2 °F 86% 29.98 in 0.5 mi SE 6.9 mph - N/A Fog Light Freezing Fog
8:53 AM 15.8 °F 8.6 °F 12.2 °F 86% 29.98 in 1.2 mi ESE 4.6 mph - N/A   Overcast
9:13 AM 15.8 °F 10.2 °F 12.2 °F 86% 29.97 in 2.5 mi ESE 3.5 mph - N/A   Overcast
9:33 AM 15.8 °F 7.2 °F 12.2 °F 86% 29.96 in 3.0 mi ESE 5.8 mph - N/A   Scattered Clouds
9:53 AM 15.8 °F 8.6 °F 14.0 °F 93% 29.96 in 3.0 mi ESE 4.6 mph - N/A   Clear
10:13 AM 17.6 °F 10.7 °F 14.0 °F 86% 29.96 in 4.0 mi ESE 4.6 mph - N/A   Clear
10:54 AM 19.4 °F 12.8 °F 17.6 °F 93% 29.96 in 4.0 mi ESE 4.6 mph - N/A   Clear
11:13 AM 19.4 °F 12.8 °F 17.6 °F 93% 29.95 in 4.0 mi ESE 4.6 mph - N/A   Clear
11:34 AM 21.2 °F 12.6 °F 19.4 °F 93% 29.94 in 5.0 mi SE 6.9 mph - N/A   Clear
11:54 AM 21.2 °F 12.6 °F 19.4 °F 93% 29.93 in 5.0 mi SE 6.9 mph - N/A   Clear
12:13 PM 23.0 °F 13.1 °F 19.4 °F 86% 29.92 in 5.0 mi East 9.2 mph - N/A Snow Light Snow
12:33 PM 23.0 °F 13.1 °F 19.4 °F 86% 29.90 in 5.0 mi ESE 9.2 mph - N/A   Clear
12:54 PM 24.8 °F 14.6 °F 19.4 °F 80% 29.88 in 5.0 mi ESE 10.4 mph - N/A   Clear
1:13 PM 24.8 °F 14.0 °F 19.4 °F 80% 29.87 in 5.0 mi ESE 11.5 mph - N/A   Haze
1:33 PM 26.6 °F 15.7 °F 19.4 °F 74% 29.85 in 5.0 mi ESE 12.7 mph - N/A   Haze
1:53 PM 26.6 °F 15.7 °F 19.4 °F 74% 29.84 in 5.0 mi East 12.7 mph - N/A   Haze
2:13 PM 26.6 °F 15.2 °F 19.4 °F 74% 29.83 in 7.0 mi ESE 13.8 mph - N/A   Clear
2:34 PM 26.6 °F 15.7 °F 21.2 °F 80% 29.83 in 7.0 mi ESE 12.7 mph - N/A   Clear
2:54 PM 26.6 °F 15.2 °F 21.2 °F 80% 29.82 in 7.0 mi ESE 13.8 mph - N/A   Clear
3:14 PM 26.6 °F 15.7 °F 21.2 °F 80% 29.81 in 7.0 mi ESE 12.7 mph - N/A   Clear
3:33 PM 26.6 °F 15.2 °F 21.2 °F 80% 29.81 in 7.0 mi ESE 13.8 mph - N/A   Clear
3:53 PM 26.6 °F 15.7 °F 21.2 °F 80% 29.81 in 7.0 mi ESE 12.7 mph - N/A   Clear
4:14 PM 26.6 °F 16.8 °F 21.2 °F 80% 29.81 in 7.0 mi ESE 10.4 mph - N/A   Clear
4:34 PM 26.6 °F 17.5 °F 21.2 °F 80% 29.80 in 7.0 mi ESE 9.2 mph - N/A   Clear
4:54 PM 26.6 °F 18.2 °F 21.2 °F 80% 29.81 in 7.0 mi East 8.1 mph - N/A   Clear
5:14 PM 24.8 °F 15.3 °F 21.2 °F 86% 29.80 in 7.0 mi East 9.2 mph - N/A   Clear
5:33 PM 24.8 °F 15.3 °F 21.2 °F 86% 29.80 in 7.0 mi East 9.2 mph - N/A   Clear
5:54 PM 26.6 °F 16.8 °F 21.2 °F 80% 29.78 in 7.0 mi East 10.4 mph - N/A   Clear
6:14 PM 26.6 °F 17.5 °F 21.2 °F 80% 29.78 in 7.0 mi East 9.2 mph - N/A   Clear
6:35 PM 26.6 °F 17.5 °F 23.0 °F 86% 29.77 in 10.0 mi East 9.2 mph - N/A   Clear
6:54 PM 26.6 °F 17.5 °F 23.0 °F 86% 29.77 in 10.0 mi ESE 9.2 mph - N/A   Clear
7:14 PM 28.4 °F 18.5 °F 23.0 °F 80% 29.76 in 10.0 mi ESE 11.5 mph - N/A   Clear
7:34 PM 28.4 °F 21.2 °F 23.0 °F 80% 29.76 in 10.0 mi SE 6.9 mph - N/A   Clear
7:54 PM 28.4 °F 20.4 °F 24.8 °F 86% 29.76 in 10.0 mi ESE 8.1 mph - N/A   Clear
8:13 PM 28.4 °F 21.2 °F 24.8 °F 86% 29.75 in 10.0 mi ESE 6.9 mph - N/A   Clear
8:34 PM 28.4 °F 23.3 °F 24.8 °F 86% 29.74 in 10.0 mi ESE 4.6 mph - N/A   Clear
8:54 PM 26.6 °F 20.0 °F 24.8 °F 93% 29.74 in 7.0 mi ESE 5.8 mph - N/A   Clear
9:14 PM 30.2 °F 23.4 °F 26.6 °F 86% 29.74 in 10.0 mi SE 6.9 mph - N/A   Clear
9:33 PM 30.2 °F 22.6 °F 26.6 °F 86% 29.72 in 10.0 mi ESE 8.1 mph - N/A   Clear
9:53 PM 30.2 °F 22.6 °F 26.6 °F 86% 29.72 in 10.0 mi ESE 8.1 mph - N/A   Clear
10:13 PM 33.8 °F 27.0 °F 28.4 °F 81% 29.71 in 10.0 mi ESE 8.1 mph - N/A   Clear
10:34 PM 33.8 °F 27.7 °F 28.4 °F 81% 29.71 in 10.0 mi ESE 6.9 mph - N/A   Clear
10:54 PM 33.8 °F 29.6 °F 28.4 °F 81% 29.70 in 10.0 mi ESE 4.6 mph - N/A   Clear
11:13 PM 33.8 °F 28.6 °F 30.2 °F 87% 29.69 in 10.0 mi ESE 5.8 mph - N/A   Clear
11:34 PM 35.6 °F 29.9 °F 30.2 °F 81% 29.68 in 10.0 mi ESE 6.9 mph - N/A   Clear
11:53 PM 35.6 °F 28.0 °F 30.2 °F 81% 29.67 in 10.0 mi ESE 10.4 mph - N/A   Clear